Location: Sabalos
(43.2860°N, 0.1414°E)
Time: 08:11:33
(UTC+00:00)

Cosmos 1980 - Pass Details

Date: 05 July 2020
Orbit: 839 x 847 km, 71.0° (Epoch: 14 August)

Event Time Altitude Azimuth Distance (km) Brightness Sun altitude
Exits shadow 21:56:24 31° 149° (SSE) 1,444 4.3 -17.8°
Maximum altitude 21:58:21 41° 106° (ESE) 1,203 4.1 -18.0°
Drops below altitude 10° 22:03:36 10° 38° (NE) 2,462 6.4 -18.5°
Sets 22:06:09 0° 32° (NNE) 3,402 7.3 -18.7°
